Teterboro, NJ

6:05 AM EST on January 20, 2018 (GMT -0500)
Teterboro

Weather History for KTEB - August, 2013

Change the Weather History Date:

Saturday, August 3, 2013

  Actual Average Record
Temperature  
Mean Temperature 74 °F -  
Max Temperature 79 °F 83 °F 98 °F (2005)
Min Temperature 68 °F 64 °F 60 °F (1998)
Cooling Degree Days 8    
Growing Degree Days 24 (Base 50)    
Moisture  
Dew Point 61 °F    
Average Humidity 70    
Maximum Humidity 84    
Minimum Humidity 54    
Precipitation  
Precipitation 0.05 in - - ()
Sea Level Pressure  
Sea Level Pressure 29.88 in    
Wind  
Wind Speed 5 mph (WSW)    
Max Wind Speed 12 mph    
Max Gust Speed 20 mph    
Visibility 10 miles    
Events Rain    
Averages and records for this station are not official NWS values.
T = Trace of Precipitation, MM = Missing Value Source: NWS Daily Summary

Daily Weather History Graph

Daily Weather History Graph

Search for Another Location

Airport or City:

Trip Planner

Search our weather history database for the weather conditions in past years. The results will help you decide how hot, cold, wet, or windy it might be!

Date:

Astronomy

Aug. 03, 2013 Rise Set
Actual Time 5:54 AM EDT 8:09 PM EDT
Civil Twilight 5:24 AM EDT 8:39 PM EDT
Nautical Twilight 4:46 AM EDT 9:17 PM EDT
Astronomical Twilight 4:04 AM EDT 9:58 PM EDT
Moon 3:01 AM EDT (8/3) 5:50 PM EDT (8/3)
Length of Visible Light 15h 15m
Length of Day
14h 14m
Waning Crescent, 9% of the Moon is Illuminated
Aug 3
Waning Crescent
Aug 6
New
Aug 14
First Quarter
Aug 20
Full
Aug 28
Last Quarter

Hourly Weather History & Observations

Time (EDT) Temp. Dew Point Humidity Pressure Visibility Wind Dir Wind Speed Gust Speed Precip Events Conditions
12:51 AM 73.0 °F 55.9 °F 55% 29.90 in 10.0 mi West 4.6 mph - N/A   Clear
1:51 AM 71.1 °F 57.9 °F 63% 29.89 in 10.0 mi SSW 3.5 mph - N/A   Clear
2:51 AM 70.0 °F 59.0 °F 68% 29.88 in 10.0 mi South 3.5 mph - N/A   Clear
3:51 AM 70.0 °F 57.9 °F 65% 29.86 in 10.0 mi WSW 4.6 mph - N/A   Overcast
4:51 AM 70.0 °F 57.9 °F 65% 29.88 in 10.0 mi South 3.5 mph - N/A   Mostly Cloudy
5:51 AM 70.0 °F 57.9 °F 65% 29.89 in 10.0 mi SW 4.6 mph - 0.00 in   Scattered Clouds
6:51 AM 69.1 °F 57.9 °F 68% 29.90 in 10.0 mi WNW 4.6 mph - 0.00 in Rain Light Rain
7:51 AM 68.0 °F 61.0 °F 78% 29.90 in 10.0 mi Calm Calm - 0.01 in Rain Light Rain
8:51 AM 69.1 °F 61.0 °F 75% 29.91 in 10.0 mi West 4.6 mph - 0.00 in Rain Light Rain
9:51 AM 69.1 °F 62.1 °F 78% 29.91 in 10.0 mi SSW 4.6 mph - 0.00 in Rain Light Rain
10:51 AM 68.0 °F 63.0 °F 84% 29.91 in 8.0 mi WSW 8.1 mph - 0.01 in Rain Light Rain
11:51 AM 70.0 °F 64.0 °F 81% 29.91 in 10.0 mi West 5.8 mph - 0.01 in Rain Light Rain
12:51 PM 70.0 °F 64.9 °F 84% 29.90 in 7.0 mi SW 8.1 mph - 0.02 in Rain Light Rain
1:51 PM 72.0 °F 64.9 °F 78% 29.89 in 10.0 mi SW 5.8 mph - 0.00 in   Overcast
2:51 PM 77.0 °F 63.0 °F 62% 29.88 in 10.0 mi SW 11.5 mph - N/A   Clear
3:51 PM 78.1 °F 62.1 °F 58% 29.85 in 10.0 mi SW 11.5 mph 19.6 mph N/A   Scattered Clouds
4:51 PM 79.0 °F 62.1 °F 56% 29.83 in 10.0 mi West 11.5 mph 18.4 mph N/A   Scattered Clouds
5:51 PM 79.0 °F 61.0 °F 54% 29.85 in 10.0 mi WSW 11.5 mph - N/A   Clear
6:51 PM 77.0 °F 62.1 °F 60% 29.86 in 10.0 mi SW 8.1 mph - N/A   Overcast
7:51 PM 73.9 °F 64.0 °F 71% 29.85 in 10.0 mi SW 8.1 mph - N/A   Clear
8:51 PM 73.0 °F 64.0 °F 73% 29.87 in 10.0 mi WSW 9.2 mph - N/A   Clear
9:51 PM 73.0 °F 64.0 °F 73% 29.87 in 10.0 mi SSW 3.5 mph - N/A   Overcast
10:51 PM 72.0 °F 63.0 °F 73% 29.87 in 10.0 mi NW 3.5 mph - N/A   Partly Cloudy
11:51 PM 69.1 °F 64.0 °F 84% 29.88 in 10.0 mi NW 3.5 mph - N/A   Clear